GSAT0218 (GALILEO 22) (43058 NORAD) Tracking and Keplerian Element Data

This shows tracking and keplerian element data for the satellite.

Feedback or suggestion? Click here.




ElementValue
Catalog43058
NameGSAT0218 (GALILEO 22)
Epoch Orbit791
Epoch Day79.666649
Epoch Year2019
RAAN294.2515
Inclination56.6298
Eccentricity0.000238
Argument of Perigee269.0029
Mean Anonmoly91.0119
Mean Motion1.70473786
Decay Rate-4E-08
L11 43058U 17079D 19079.66664900 -.00000004 00000-0 00000-0 0 9992
L22 43058 56.6298 294.2515 0002380 269.0029 91.0119 1.70473786 7918

Live tracking and technical data element details for GSAT0218 (GALILEO 22) (NORAD 43058). GSAT0218 (GALILEO 22) can be tracked NOW for your location showing map with azimuth and elevation plus other details from your city location.

Track the satellite on the map from your city or location and see movement details for azimuth, elevation, latitude, longitude, range, height, and movement on the map or in text.







IsCatalogInMostPopularTable: catalog: 43058, numindb: 236
Update: records affected: 1



GetName: 43058 GSAT0218 (GALILEO 22)

Hit Count: updated at: Sat, 23 Mar 2019 02:08:15 GMT